Location: Antoign�
(47.0844°N, 0.1131°W)
Time: 11:16:25
(UTC+00:00)

Okean 3 - Pass Details

Date: 03 March 2021
Orbit: 577 x 600 km, 82.5° (Epoch: 11 April)

Event Time Altitude Azimuth Distance (km) Brightness Sun altitude
Rises 20:12:59 0° 347° (NNW) 2,832 7.4 -25.0°
Reaches altitude 10° 20:15:12 10° 343° (NNW) 1,930 6.5 -25.4°
Maximum altitude 20:19:23 58° 265° (W) 698 4.0 -26.0°
Enters shadow 20:19:38 57° 249° (WSW) 705 3.9 -26.1°
